This is the latest recevied weather packets stored in our database for station/object KN6DHD. If no packets are shown the sender has not sent any weather packets the latest 10 day(s).
| Time | Temp. | Humidity | Pressure | Rain* | Wind** | Luminosity | Snow |
|---|---|---|---|---|---|---|---|
| 1776959412 | 12.22° C | 85% | 1021.1 hPa | 0 mm | - | 32 W/m² | - |
| 1776959108 | 12.22° C | 85% | 1021 hPa | 0 mm | - | 32 W/m² | - |
| 1776958802 | 11.67° C | 86% | 1021.2 hPa | 0 mm | - | 34 W/m² | - |
| 1776958496 | 11.67° C | 87% | 1021.1 hPa | 0 mm | - | 31 W/m² | - |
| 1776958196 | 11.11° C | 88% | 1021 hPa | 0 mm | - | 31 W/m² | - |
| 1776957896 | 11.11° C | 88% | 1021.1 hPa | 0 mm | - | 30 W/m² | - |
| 1776957592 | 11.11° C | 88% | 1021.2 hPa | 0 mm | - | 38 W/m² | - |
| 1776957287 | 11.11° C | 89% | 1021 hPa | 0 mm | - | 31 W/m² | - |
| 1776956993 | 10.56° C | 89% | 1021.2 hPa | 0 mm | - | 54 W/m² | - |
| 1776956681 | 10.56° C | 90% | 1021 hPa | 0 mm | - | 30 W/m² | - |
| 1776956379 | 10° C | 92% | 1021.2 hPa | 0 mm | - | 26 W/m² | - |
| 1776956079 | 10° C | 93% | 1021.1 hPa | 0 mm | - | 24 W/m² | - |
| 1776955771 | 10° C | 94% | 1021.2 hPa | 0 mm | - | 24 W/m² | - |
| 1776955469 | 9.44° C | 95% | 1021.4 hPa | 0 mm | - | 23 W/m² | - |
| 1776955168 | 9.44° C | 95% | 1021.4 hPa | 0 mm | - | 23 W/m² | - |
| 1776954866 | 9.44° C | 96% | 1021 hPa | 0 mm | - | 21 W/m² | - |
| 1776954566 | 9.44° C | 96% | 1020.8 hPa | 0 mm | - | 20 W/m² | - |
| 1776954260 | 8.89° C | 97% | 1021 hPa | 0 mm | - | 19 W/m² | - |
| 1776953955 | 8.89° C | 98% | 1021.1 hPa | 0 mm | - | 18 W/m² | - |
| 1776953650 | 8.89° C | 98% | 1021 hPa | 0 mm | - | 17 W/m² | - |
| 1776953344 | 8.89° C | 98% | 1021 hPa | 0 mm | - | 16 W/m² | - |
| 1776953043 | 8.33° C | 99% | 1020.9 hPa | 0 mm | - | 15 W/m² | - |
| 1776952740 | 8.33° C | 99% | 1021 hPa | 0 mm | - | 14 W/m² | - |
| 1776952436 | 8.33° C | 99% | 1020.7 hPa | 0 mm | - | 12 W/m² | - |
| 1776952133 | 8.33° C | 99% | 1021.1 hPa | 0 mm | - | 10 W/m² | - |
* Rain latest hour (hover to see other rain measurements)
** Current wind speed in m/s (hover to see current wind gust speed)